STARLINK-11430, 62916

Orbit data source: Space-Track

STARLINK-11430, 62916 is a payload satellite owned by SpaceX/Seattle (US) in LEO that was launched on Sat, 08 Feb 2025 UTC via an FALCON 9 launch vehicle from the Air Force Eastern Test Range (AFETR). Payload-class satellites include a variety of spacecraft equipped with specific instruments for various scientific and technological missions. These include communications satellites like Starlink; space stations such as the ISS; scientific satellites like the Hubble; Earth observation satellites from companies like Planet Labs, Umbra, and HawkEye 360; GPS; miniature CubeSats for education and research; and military/defense satellites.

Loading next visibility...
Identifier
62916, 2025-027K
Orbit
LEO
Last TLE update
5 hours ago
Origin
Manufacturer
SpaceX/Seattle
Mission
Operational Commercial Communications
Bus & Motor
STARLINK V2M, Unknown motor
Mass
730 kg wet, ~700 kg dry
Launch date (UTC)
2025-02-08 (5 months ago)
Launch vehicle
FALCON 9
Launch site
Air Force Eastern Test Range (AFETR)
Object type
Payload
Rocket body
Debris
Shape & HBR
Box + 2 Pan, 29 m
Radar Cross Section
36.964 m², Large (>1 m²)

Expand to show TLE details & history

TLE from 5 hours ago
0 STARLINK-11430
1 62916U 25027K   25182.06634127  .00163990  00000-0  12540-2 0  9999
2 62916  43.0016  64.7845 0001953 292.6883  67.3778 15.70886122 23610
Epoch: 2025-07-01T01:35Z
TLE epoch observation values (Epoch: 2025-07-01T01:35:31.885Z)
Latitude
-0.00004°
Longitude
121.53447°
Altitude
355.629 km
Speed
7.698 km/s
True Right ascension
04h 19m 08s
True Declination
0° 00' 00"
Sunlit
Object was in daylight at epoch
Visualization orbit readout
Latitude
-22.53383°
Longitude
-33.58594°
Altitude
361.192 km
Speed
7.693 km/s
Apparent Right ascension
15h 45m 31s
Apparent Declination
-75° 39' 48"
Sunlit
Object is in full shadow
Visualization observer readout
Local Sidereal Time
18:42:28
Azimuth
191.398° SSW
Elevation
-29.053°
Doppler factor
1
Orbital elements
Apogee altitude
359.66 km
Perigee altitude
357.029 km
Semi-major axis
6,736.482 km
Eccentricity
0.0002
Inclination
43.0016°
RAAN
64.7845°
Arg. of periapsis
292.6883°
True anomaly
Unknown
Mean anomaly
67.3778°
Eccentric anomaly
Unknown
Mean motion
3.92549 °/min
Orbital period
91.71 mins
BSTAR
0.001254
Loading maneuver chart data...
Loading SW <> Apogee altitude chart data...
Loading historical data...
Loading historical data...
Loading historical data...
Loading historical data...
Loading historical data...
Loading historical data...
Loading historical data...

STARLINK-11430 Visibility forecast

Observer location: undefined°, undefined°

Span
Click to sort rows by Start time (UTC) header in descending order
Start Az.
Max El. time (UTC)
Max El. Az.
Max El.
End time (UTC)
End Az.
4 mins2025-07-01 20:09:35.144Z229.223° WSW2025-07-01 20:10:35.144Z187.684° SSW40.779°2025-07-01 20:13:35.144Z76.149° E
4 mins2025-07-01 21:45:35.144Z292.726° NW2025-07-01 21:46:35.144Z326.658° NNW33.861°2025-07-01 21:49:35.144Z68.512° E
4 mins2025-07-01 23:21:35.144Z297.873° NW2025-07-01 23:23:35.144Z40.813° NE38.991°2025-07-01 23:25:35.144Z89.835° E
|